Location: El Recuerdo
(3.6589°N, 75.6172°W)
Time: 20:22:21
(UTC+00:00)

Meteor 1-5 Rocket - Pass Details

Date: 18 March 2026
Orbit: 787 x 914 km, 81.2° (Epoch: 11 April)

Event Time Altitude Azimuth Distance (km) Brightness Sun altitude
Rises 23:40:15 0° 208° (SSW) 3,542 7.9 -7.5°
Reaches altitude 10° 23:43:07 10° 220° (SW) 2,600 7.4 -8.2°
Maximum altitude 23:47:59 26° 275° (W) 1,692 6.8 -9.4°
Drops below altitude 10° 23:52:49 10° 331° (NNW) 2,570 7.1 -10.6°
Sets 23:55:39 0° 343° (NNW) 3,494 7.6 -11.3°
